LEO Vantage 1

operational
NORAD ID: 43113 Int'l Des: 2018-004 Owner: TCANL Country: CA
LEORETROGRADE

About LEO Vantage 1

Description loading...

Live Position

Loading 3D Globe...

Upcoming Passes

Altitude History

Altitude vs Time

uPlot chart will show altitude changes over time

Two-Line Element Set

1 43113U 18004C 26062.09122203 .00004956 00000-0 34451-3 0 9994
2 43113 99.2488 326.5545 0353452 45.0934 317.8382 14.67106298421925
Epoch: Mar 3, 2026 • Age: 25 hours

Current Status

Altitude 857.1 km
Velocity 7.34 km/s
Sub-Earth Point -80.73°S, 121.6°W
Launch Date Jan 12, 2018
Age 8.1 years
Type other

Technical Details

Classification Payload
Mass 100.00 kg
Dry Mass 100.00 kg
Total Mass 100.00 kg
Length 0.70 m
Diameter 0.70 m
Span 1.00 m
Shape Box +dish
Manufacturer SSTLA
Bus Type SSTL-42
Phase Status In Orbit
Owner/State TCANL/CA

Large Constellations

Loading constellations...